Time,TemperatureF,DewpointF,PressureIn,WindDirection,WindDirectionDegrees,WindSpeedMPH,WindSpeedGustMPH,Humidity,HourlyPrecipIn,Conditions,Clouds,dailyrainin,SoftwareType,DateUTC
2013-05-15 00:09:00,66.0,54.0,30.24,East,86,0.0,6.0,65,0.00,,,0.00,weatherlink.com 1.10,2013-05-15 04:09:00,
2013-05-15 00:24:00,66.0,54.0,30.24,NNW,338,0.0,4.0,65,0.00,,,0.00,weatherlink.com 1.10,2013-05-15 04:24:00,
2013-05-15 00:39:00,65.8,54.0,30.24,North,355,0.0,4.0,66,0.00,,,0.00,weatherlink.com 1.10,2013-05-15 04:39:00,
2013-05-15 00:54:00,65.8,54.0,30.24,NNE,13,0.0,3.0,65,0.00,,,0.00,weatherlink.com 1.10,2013-05-15 04:54:00,
2013-05-15 01:09:00,66.0,54.0,30.24,NNE,22,0.0,9.0,65,0.00,,,0.00,weatherlink.com 1.10,2013-05-15 05:09:00,
2013-05-15 01:24:00,65.7,54.0,30.24,WNW,299,0.0,3.0,66,0.00,,,0.00,weatherlink.com 1.10,2013-05-15 05:24:00,
2013-05-15 01:39:00,65.7,54.0,30.24,North,350,0.0,1.0,66,0.00,,,0.00,weatherlink.com 1.10,2013-05-15 05:39:00,
2013-05-15 01:55:00,65.3,54.0,30.24,ENE,78,0.0,1.0,67,0.00,,,0.00,weatherlink.com 1.10,2013-05-15 05:55:00,
2013-05-15 02:10:00,65.0,54.0,30.24,WSW,242,0.0,0.0,67,0.00,,,0.00,weatherlink.com 1.10,2013-05-15 06:10:00,
2013-05-15 02:25:00,65.0,54.0,30.24,West,280,0.0,0.0,68,0.00,,,0.00,weatherlink.com 1.10,2013-05-15 06:25:00,
2013-05-15 02:40:00,64.8,54.0,30.23,SSW,197,0.0,1.0,68,0.00,,,0.00,weatherlink.com 1.10,2013-05-15 06:40:00,
2013-05-15 02:55:00,64.3,53.0,30.23,SW,231,0.0,0.0,68,0.00,,,0.00,weatherlink.com 1.10,2013-05-15 06:55:00,
2013-05-15 03:10:00,63.8,53.0,30.23,SW,217,0.0,0.0,69,0.00,,,0.00,weatherlink.com 1.10,2013-05-15 07:10:00,
2013-05-15 03:25:00,62.5,54.0,30.23,NNE,22,0.0,0.0,73,0.00,,,0.00,weatherlink.com 1.10,2013-05-15 07:25:00,
2013-05-15 03:40:00,61.0,53.0,30.23,East,80,0.0,1.0,75,0.00,,,0.00,weatherlink.com 1.10,2013-05-15 07:40:00,
2013-05-15 03:55:00,61.1,53.0,30.23,ENE,62,0.0,1.0,75,0.00,,,0.00,weatherlink.com 1.10,2013-05-15 07:55:00,
2013-05-15 04:10:00,60.0,53.0,30.23,East,81,0.0,0.0,77,0.00,,,0.00,weatherlink.com 1.10,2013-05-15 08:10:00,
2013-05-15 04:25:00,59.0,53.0,30.23,ENE,77,0.0,0.0,80,0.00,,,0.00,weatherlink.com 1.10,2013-05-15 08:25:00,
2013-05-15 04:40:00,57.4,52.0,30.23,ENE,77,0.0,0.0,83,0.00,,,0.00,weatherlink.com 1.10,2013-05-15 08:40:00,
2013-05-15 04:55:00,56.9,52.0,30.24,West,277,0.0,0.0,84,0.00,,,0.00,weatherlink.com 1.10,2013-05-15 08:55:00,
2013-05-15 05:10:00,56.2,52.0,30.24,East,94,0.0,0.0,85,0.00,,,0.00,weatherlink.com 1.10,2013-05-15 09:10:00,
2013-05-15 05:25:00,56.2,52.0,30.24,West,266,0.0,0.0,85,0.00,,,0.00,weatherlink.com 1.10,2013-05-15 09:25:00,
2013-05-15 05:40:00,54.7,51.0,30.24,ENE,70,0.0,0.0,87,0.00,,,0.00,weatherlink.com 1.10,2013-05-15 09:40:00,
2013-05-15 05:55:00,54.7,51.0,30.24,East,81,0.0,0.0,87,0.00,,,0.00,weatherlink.com 1.10,2013-05-15 09:55:00,
2013-05-15 06:10:00,53.8,50.0,30.25,ESE,104,0.0,0.0,87,0.00,,,0.00,weatherlink.com 1.10,2013-05-15 10:10:00,
2013-05-15 06:25:00,53.5,50.0,30.25,West,266,0.0,0.0,88,0.00,,,0.00,weatherlink.com 1.10,2013-05-15 10:25:00,
2013-05-15 06:40:00,53.5,50.0,30.25,NE,53,0.0,0.0,88,0.00,,,0.00,weatherlink.com 1.10,2013-05-15 10:40:00,
2013-05-15 06:55:00,53.1,50.0,30.26,NE,53,0.0,0.0,88,0.00,,,0.00,weatherlink.com 1.10,2013-05-15 10:55:00,
2013-05-15 07:10:00,53.3,50.0,30.26,NE,53,0.0,0.0,88,0.00,,,0.00,weatherlink.com 1.10,2013-05-15 11:10:00,
2013-05-15 07:25:00,53.9,51.0,30.26,ENE,68,0.0,0.0,89,0.00,,,0.00,weatherlink.com 1.10,2013-05-15 11:25:00,
2013-05-15 07:40:00,54.7,51.0,30.26,East,84,0.0,0.0,88,0.00,,,0.00,weatherlink.com 1.10,2013-05-15 11:40:00,
2013-05-15 07:55:00,55.5,52.0,30.26,ENE,75,0.0,0.0,88,0.00,,,0.00,weatherlink.com 1.10,2013-05-15 11:55:00,
2013-05-15 08:10:00,56.0,53.0,30.26,ENE,75,0.0,0.0,88,0.00,,,0.00,weatherlink.com 1.10,2013-05-15 12:10:00,
2013-05-15 08:25:00,57.1,53.0,30.26,North,10,0.0,0.0,87,0.00,,,0.00,weatherlink.com 1.10,2013-05-15 12:25:00,
2013-05-15 08:40:00,59.6,55.0,30.26,ENE,69,0.0,0.0,84,0.00,,,0.00,weatherlink.com 1.10,2013-05-15 12:40:00,
2013-05-15 08:55:00,61.6,55.0,30.26,ENE,76,0.0,0.0,80,0.00,,,0.00,weatherlink.com 1.10,2013-05-15 12:55:00,
2013-05-15 09:10:00,63.0,56.0,30.27,ENE,76,0.0,0.0,79,0.00,,,0.00,weatherlink.com 1.10,2013-05-15 13:10:00,
2013-05-15 09:40:00,66.2,56.0,30.26,SE,146,0.0,0.0,70,0.00,,,0.00,weatherlink.com 1.10,2013-05-15 13:40:00,
2013-05-15 09:55:00,67.9,56.0,30.26,SSW,204,0.0,0.0,65,0.00,,,0.00,weatherlink.com 1.10,2013-05-15 13:55:00,
2013-05-15 10:11:00,68.9,56.0,30.26,WSW,256,0.0,0.0,64,0.00,,,0.00,weatherlink.com 1.10,2013-05-15 14:11:00,
2013-05-15 10:26:00,70.2,56.0,30.25,SE,127,0.0,2.0,62,0.00,,,0.00,weatherlink.com 1.10,2013-05-15 14:26:00,
2013-05-15 10:41:00,71.7,57.0,30.25,WSW,249,0.0,6.0,60,0.00,,,0.00,weatherlink.com 1.10,2013-05-15 14:41:00,
2013-05-15 10:56:00,73.9,56.0,30.25,WSW,241,0.0,1.0,54,0.00,,,0.00,weatherlink.com 1.10,2013-05-15 14:56:00,
2013-05-15 11:11:00,74.6,56.0,30.24,ENE,75,0.0,0.0,52,0.00,,,0.00,weatherlink.com 1.10,2013-05-15 15:11:00,
2013-05-15 11:41:00,75.3,56.0,30.23,SE,131,0.0,3.0,51,0.00,,,0.00,weatherlink.com 1.10,2013-05-15 15:41:00,
2013-05-15 11:56:00,75.6,56.0,30.23,SSE,149,1.0,1.0,50,0.00,,,0.00,weatherlink.com 1.10,2013-05-15 15:56:00,
2013-05-15 12:11:00,75.8,55.0,30.22,SSE,149,0.0,2.0,49,0.00,,,0.00,weatherlink.com 1.10,2013-05-15 16:11:00,
2013-05-15 12:26:00,78.0,55.0,30.22,East,79,0.0,1.0,45,0.00,,,0.00,weatherlink.com 1.10,2013-05-15 16:26:00,
2013-05-15 12:56:00,80.8,55.0,30.20,WSW,244,0.0,3.0,41,0.00,,,0.00,weatherlink.com 1.10,2013-05-15 16:56:00,
2013-05-15 13:11:00,82.2,53.0,30.20,ESE,113,0.0,1.0,36,0.00,,,0.00,weatherlink.com 1.10,2013-05-15 17:11:00,
2013-05-15 13:26:00,82.6,54.0,30.19,SW,224,0.0,7.0,38,0.00,,,0.00,weatherlink.com 1.10,2013-05-15 17:26:00,
2013-05-15 13:41:00,83.4,51.0,30.19,South,188,0.0,5.0,33,0.00,,,0.00,weatherlink.com 1.10,2013-05-15 17:41:00,
2013-05-15 13:56:00,85.0,50.0,30.18,ENE,76,0.0,1.0,30,0.00,,,0.00,weatherlink.com 1.10,2013-05-15 17:56:00,
2013-05-15 14:11:00,85.4,52.0,30.17,WNW,287,0.0,4.0,32,0.00,,,0.00,weatherlink.com 1.10,2013-05-15 18:11:00,
2013-05-15 14:41:00,85.3,51.0,30.16,WNW,302,0.0,2.0,31,0.00,,,0.00,weatherlink.com 1.10,2013-05-15 18:41:00,
2013-05-15 14:56:00,85.2,52.0,30.16,SW,219,0.0,4.0,32,0.00,,,0.00,weatherlink.com 1.10,2013-05-15 18:56:00,
2013-05-15 15:11:00,85.4,53.0,30.15,South,181,0.0,4.0,33,0.00,,,0.00,weatherlink.com 1.10,2013-05-15 19:11:00,
2013-05-15 15:57:00,85.2,54.0,30.13,SW,224,2.0,4.0,34,0.00,,,0.00,weatherlink.com 1.10,2013-05-15 19:57:00,
2013-05-15 16:12:00,85.0,54.0,30.13,West,264,0.0,6.0,34,0.00,,,0.00,weatherlink.com 1.10,2013-05-15 20:12:00,
2013-05-15 16:27:00,85.8,52.0,30.12,SSE,156,0.0,5.0,31,0.00,,,0.00,weatherlink.com 1.10,2013-05-15 20:27:00,
2013-05-15 16:43:00,85.0,50.0,30.12,West,275,0.0,9.0,30,0.00,,,0.00,weatherlink.com 1.10,2013-05-15 20:43:00,
2013-05-15 16:57:00,85.2,48.0,30.12,SW,229,2.0,4.0,27,0.00,,,0.00,weatherlink.com 1.10,2013-05-15 20:57:00,
2013-05-15 17:12:00,85.1,54.0,30.11,SW,217,1.0,6.0,34,0.00,,,0.00,weatherlink.com 1.10,2013-05-15 21:12:00,
2013-05-15 17:27:00,85.0,54.0,30.11,SW,228,0.0,4.0,35,0.00,,,0.00,weatherlink.com 1.10,2013-05-15 21:27:00,
2013-05-15 17:42:00,84.5,56.0,30.11,SW,227,0.0,6.0,38,0.00,,,0.00,weatherlink.com 1.10,2013-05-15 21:42:00,
2013-05-15 17:57:00,83.9,56.0,30.11,SSW,205,0.0,4.0,38,0.00,,,0.00,weatherlink.com 1.10,2013-05-15 21:57:00,
2013-05-15 18:12:00,83.5,59.0,30.11,West,273,0.0,1.0,43,0.00,,,0.00,weatherlink.com 1.10,2013-05-15 22:12:00,
2013-05-15 18:57:00,81.9,56.0,30.10,West,262,0.0,1.0,41,0.00,,,0.00,weatherlink.com 1.10,2013-05-15 22:57:00,
2013-05-15 19:12:00,81.4,56.0,30.10,SW,219,0.0,1.0,42,0.00,,,0.00,weatherlink.com 1.10,2013-05-15 23:12:00,
2013-05-15 19:42:00,79.0,57.0,30.10,SW,221,0.0,1.0,47,0.00,,,0.00,weatherlink.com 1.10,2013-05-15 23:42:00,
2013-05-15 19:57:00,76.7,56.0,30.10,SW,224,0.0,0.0,49,0.00,,,0.00,weatherlink.com 1.10,2013-05-15 23:57:00,
2013-05-15 20:27:00,72.5,58.0,30.10,SW,226,0.0,0.0,60,0.00,,,0.00,weatherlink.com 1.10,2013-05-16 00:27:00,
2013-05-15 20:42:00,70.3,57.0,30.10,SW,226,0.0,0.0,64,0.00,,,0.00,weatherlink.com 1.10,2013-05-16 00:42:00,
2013-05-15 20:57:00,69.0,57.0,30.10,SW,226,0.0,0.0,66,0.00,,,0.00,weatherlink.com 1.10,2013-05-16 00:57:00,
2013-05-15 21:12:00,68.7,55.0,30.11,SW,236,0.0,0.0,63,0.00,,,0.00,weatherlink.com 1.10,2013-05-16 01:12:00,
2013-05-15 21:42:00,67.0,57.0,30.12,WSW,257,0.0,0.0,70,0.00,,,0.00,weatherlink.com 1.10,2013-05-16 01:42:00,
2013-05-15 22:27:00,65.7,56.0,30.13,SSE,152,0.0,0.0,71,0.00,,,0.00,weatherlink.com 1.10,2013-05-16 02:27:00,
2013-05-15 22:42:00,65.4,56.0,30.13,SW,215,0.0,0.0,71,0.00,,,0.00,weatherlink.com 1.10,2013-05-16 02:42:00,
2013-05-15 22:57:00,66.1,56.0,30.13,WSW,243,0.0,1.0,70,0.00,,,0.00,weatherlink.com 1.10,2013-05-16 02:57:00,
2013-05-15 23:42:00,63.2,56.0,30.13,SSW,210,0.0,0.0,77,0.00,,,0.00,weatherlink.com 1.10,2013-05-16 03:42:00,